Home > Weather > Stellenbosch > Past weeks

Flag for South Africa Past Weather in Stellenbosch, South Africa — Yesterday and Last 2 Weeks

Now
52 °F

Fog.


Feels Like: 50 °F
Forecast: 42 / 74 °F
Wind: 6 mph from North

Location: Cape Town International Airport

Current Time: May 29, 2016 at 7:56:48 AM

Latest Report: May 29, 2016 at 7:00 AM


Visibility: 0 mi

Pressure: 30.07 "Hg

Humidity: 94%

Dew Point: 50 °F

Location of StellenboschLocation

Past Weather in Stellenbosch — Graph

°F

Stellenbosch Temperature Yesterday

Maximum temperature yesterday: 63 °F (at 3:00 PM)
Minimum temperature yesterday: 46 °F (at 10:00 PM)
Average temperature yesterday: 56 °F

High & Low Weather Summary for the Past Weeks

 TemperatureHumidityPressure
High88 °F (May 17, 2:00 PM)100% (May 26, 4:00 AM)30.42 "Hg (May 26, 4:00 AM)
Low43 °F (May 20, 8:00 AM)31% (May 17, 1:00 PM)29.92 "Hg (May 17, 4:00 PM)
Average58 °F80%30.17 "Hg
* Reported May 14 6:00 AM — May 29 6:00 AM, Stellenbosch, Weather by CustomWeather, © 2016

Note: Actual official high and low records may vary slightly from our data, if they occured in-between our weather recording intervals... More about our weather records

Advertising

Stellenbosch Weather History for the Previous 24 Hours

Scroll right to see more
 ConditionsComfort  
Time TempWeatherWind HumidityBarometerVisibility
6:00 AM
Sun, May 29
52 °FFog.6 mph100%30.09 "Hg0 mi
5:00 AM52 °FFog.6 mph100%30.09 "Hg0 mi
4:00 AM54 °FFog.7 mph94%30.09 "Hg0 mi
3:00 AM48 °FFog.2 mph94%30.09 "Hg0 mi
2:00 AM46 °FFog.2 mph100%30.09 "Hg0 mi
1:00 AM46 °FFog.1 mph93%30.09 "Hg0 mi
12:00 AM48 °FFog.5 mph94%30.09 "Hg0 mi
11:00 PM
Sat, May 28
46 °FFog.2 mph93%30.09 "Hg0 mi
10:00 PM46 °FFog.2 mph93%30.09 "Hg0 mi
9:00 PM50 °FPassing clouds.1 mph94%30.09 "Hg1 mi
8:00 PM54 °FClear.2 mph94%30.09 "Hg10 mi
7:00 PM54 °FClear.5 mph88%30.12 "Hg10 mi
6:00 PM57 °FClear.6 mph88%30.12 "Hg10 mi
5:00 PM61 °FClear.6 mph77%30.12 "Hg10 mi
4:00 PM61 °FPassing clouds.9 mph77%30.12 "HgN/A
3:00 PM63 °FPassing clouds.5 mph73%30.09 "HgN/A
2:00 PM61 °FPassing clouds.8 mph77%30.12 "HgN/A
1:00 PM61 °FPassing clouds.8 mph77%30.15 "HgN/A
12:00 PM59 °FFog.8 mph82%30.18 "Hg3 mi
11:00 AM61 °FClear.8 mph83%30.18 "Hg6 mi
9:00 AM52 °FFog.No wind94%30.18 "Hg0 mi
8:00 AM52 °FFog.No wind94%30.15 "Hg0 mi
7:00 AM54 °FFog.2 mph94%30.15 "Hg0 mi
Weather by CustomWeather, © 2016

See weather overviewHow to use our weather pages